Regional Weather Roundup
Issued by NWS Bismarck, ND

Home | Current Version | Previous Version | Text Only | Print | Product List | Glossary On
Versions: 1 2 3 4 5 6 7 8 9 10 11 12 13 14 15 16 17 18 19 20 21 22 23 24 25 26 27 28 29 30 31 32 33 34 35 36 37 38 39 40 41 42 43 44 45 46 47 48 49 50
000
ASUS43 KBIS 200920
RWRBIS

NWR BROADCAST TEXT
NATIONAL WEATHER SERVICE BISMARCK ND
400 AM CDT SUN APR 20 2014

NOTE: "FAIR" INDICATES FEW OR NO CLOUDS BELOW 12,000 FEET WITH NO
SIGNIFICANT WEATHER AND/OR OBSTRUCTIONS TO VISIBILITY.


CITY           SKY/WX    TMP DP  RH WIND       PRES   REMARKS
WILLISTON      CLEAR     29  26  89 CALM      29.90F
MINOT          CLEAR     34  29  82 SE5       29.94S
MINOT AFB      CLEAR     33  33  97 S8        29.93S
BISMARCK       CLEAR     34  32  92 NE7       29.99S
DICKINSON      CLEAR     34  23  64 S9        29.91F
GARRISON         N/A     34  30  85 E5        29.95S
HETTINGER ARPT CLEAR     29  23  78 CALM      29.95F
JAMESTOWN      CLEAR     30  28  92 S6        30.00S
CARRINGTON     FAIR      34  34 100 S10       30.00S
CROSBY         FAIR      28  28 100 S3        29.90F
HARVEY         FAIR      32  32 100 SE5       29.98R
HAZEN          FAIR      37  32  81 CALM      29.95F
LINTON         FAIR      32  32 100 E8        29.99S
MANDAN         FAIR      39  32  75 S5        29.98S
OAKES          FAIR      32  32 100 E3        30.01F
RUGBY          FAIR      28  28 100 SE6       29.97R
STANLEY        FAIR      32  32 100 SE3       29.93F
TIOGA          FAIR      28  28 100 E6        29.94F
WATFORD CITY   FAIR      28  27  93 CALM      29.88F
$$

CITY           SKY/WX    TMP DP  RH WIND       PRES   REMARKS
GRAND FORKS    CLEAR     29  27  92 SW5       30.01R
GRAND FORKS AF CLEAR     30  29  99 W3        30.01R
DEVILS LAKE    CLEAR     30  25  80 CALM      29.98S
FARGO          CLEAR     35  32  88 S3        30.02S
CANDO          FAIR      27  27 100 NE7       29.99S WCI  19
CAVALIER       FAIR      30  28  93 W3        30.01S
GRAFTON        FAIR      30  30 100 W5        30.01R
GWINNER        SUNNY     37  37 100 SE3       30.03F
LANGDON        FAIR      27  25  93 CALM      29.99S
ROLLA          FAIR      28  28 100 NW3       29.99F
WALHALLA       FAIR      32  32 100 W5        30.01R
$$

CITY           SKY/WX    TMP DP  RH WIND       PRES   REMARKS
ABERDEEN       CLEAR     36  31  82 NE7       30.01S
MOBRIDGE       CLEAR     38  29  70 SE6       29.96S
BUFFALO          N/A     41  27  57 SE5       29.87F
RAPID CITY     CLEAR     42  29  59 S7        29.94F
GLASGOW        MOCLDY    39  30  70 E13       29.82F
SIDNEY         CLEAR     30  27  86 CALM      29.90F
WOLF POINT     MOCLDY    33  26  75 E6        29.87S
GLENDIVE       CLEAR     37  23  56 SW5       29.89S
MILES CITY     CLEAR     48  31  51 S12       29.84F
BAKER          CLEAR     35  26  69 SE6       29.91F
$$

CITY           SKY/WX    TMP DP  RH WIND       PRES   REMARKS
BILLINGS       MOCLDY    50  27  40 SW10      29.84S
GREAT FALLS    CLOUDY    48  30  49 W22       29.90R
REGINA         CLEAR     28  28 100 E8        29.91S
ESTEVAN        CLEAR     30  30 100 E7        29.91F
$$




USA.gov is the U.S. government's official web portal to all federal, state and local government web resources and services.